Location: Lac Echo
(45.9375°N, 75.4580°W)
Time: 20:26:12
(UTC-04:00)

Amateur Radio Satellites - All Passes

Search period start: 30 August 2016 19:56
Search period end: 31 August 2016 19:56
Location: Lac Echo, 45.9375°N, 75.4580°W

Satellite Date Start Highest point End Downlink Frequencies (MHz)
Time Altitude Azimuth
CUBESAT XI-V 30 Aug 19:56:56 19:59:40 15° 300° (WNW) 20:02:24 437.345
BEESAT 2 30 Aug 19:57:46 19:58:44 11° 251° (WSW) 19:59:41 435.950
YUBILEINY 30 Aug 20:00:24 20:05:06 16° 287° (WNW) 20:09:47 435.215
Cosmos 2504 30 Aug 20:02:22 20:08:35 32° 275° (W) 20:14:44 435.465 / 435.565
HO-68 30 Aug 20:06:34 20:13:46 84° 252° (WSW) 20:21:02 435.675
Oscar 11 30 Aug 20:20:38 20:23:57 22° 65° (ENE) 20:27:16 145.826/435.025
SEEDS 30 Aug 20:21:44 20:25:53 90° 13° (NNE) 20:30:05 437.485
AIST 1 30 Aug 20:26:16 20:30:43 90° 259° (W) 20:35:05
FUNcube-1 30 Aug 20:32:18 20:35:59 27° 67° (ENE) 20:39:36 145.935
AAUSAT CUBESAT 2 30 Aug 20:43:08 20:47:14 86° 79° (E) 20:51:23 437.432
UWE-3 30 Aug 20:47:58 20:52:26 63° 74° (ENE) 20:56:48 435.000/436.395/437.385
PCSat 30 Aug 20:49:33 20:54:57 70° 241° (WSW) 21:00:20 145.827
DOVE 4 30 Aug 20:49:46 20:51:40 12° 275° (W) 20:53:34 437.250
CANX-2 30 Aug 20:50:59 20:54:36 28° 265° (W) 20:58:15 2200.000
COMPASS 1 30 Aug 20:54:43 20:58:47 56° 260° (W) 21:02:52 437.405
ZACube-1 30 Aug 20:55:03 20:59:18 48° 72° (ENE) 21:03:28 437.345
CUTE 1.7 + AOD 2 30 Aug 20:56:23 21:00:01 28° 265° (W) 21:03:40 437.475
AIST 2 30 Aug 20:57:18 21:01:24 53° 239° (WSW) 21:05:28 435.215
CUBEBUG 2 30 Aug 20:57:22 21:02:01 73° 259° (WSW) 21:06:32 437.445
STRAND 1 30 Aug 20:58:30 21:03:31 59° 289° (WNW) 21:08:32 437.568
CINEMA 3 30 Aug 21:03:16 21:07:15 23° 268° (W) 21:11:11 145.822/145.860
HUMSAT D 30 Aug 21:13:20 21:16:01 17° 63° (ENE) 21:18:40 437.325/437.525
PRISM 30 Aug 21:18:46 21:22:28 29° 96° (E) 21:26:08 437.425
O/OREOS (USA 219) 30 Aug 21:40:57 21:43:16 13° 45° (NE) 21:45:33 437.305
DELFI C3 30 Aug 21:53:10 21:57:06 85° 79° (ENE) 22:01:05 145.870
Oscar 11 30 Aug 21:55:48 21:59:51 39° 263° (W) 22:03:55 145.826/435.025
HO-68 30 Aug 21:58:13 22:02:31 17° 273° (W) 22:06:51 435.675
SO-50 30 Aug 21:58:50 22:00:20 11° 107° (ESE) 22:01:51 436.795
FUNcube-1 30 Aug 22:08:10 22:12:07 32° 263° (W) 22:16:02 145.935
ANTELSAT 30 Aug 22:11:51 22:13:44 13° 89° (E) 22:15:38 437.575/2403.000
GONETS M04 30 Aug 22:16:44 22:25:03 42° 70° (ENE) 22:33:17
AUBIESAT-1 30 Aug 22:21:08 22:25:17 34° 62° (ENE) 22:29:24 437.475
UWE-3 30 Aug 22:26:44 22:29:16 15° 270° (W) 22:31:46 435.000/436.395/437.385
CUSAT 1 30 Aug 22:27:49 22:29:13 12° 81° (E) 22:30:45 437.405
M-CUBED/EXP-1 PRIME 30 Aug 22:29:26 22:33:57 48° 65° (ENE) 22:38:26 437.505
ZACube-1 30 Aug 22:32:46 22:35:50 18° 268° (W) 22:38:51 437.345
PCSat 30 Aug 22:37:08 22:37:19 10° 259° (W) 22:37:32 145.827
TIGRISAT 30 Aug 22:40:31 22:44:00 24° 94° (E) 22:47:26 435.000
AISAT 30 Aug 22:42:52 22:45:48 17° 61° (ENE) 22:48:44 437.250
HUMSAT D 30 Aug 22:47:15 22:51:17 50° 261° (W) 22:55:17 437.325/437.525
ESTCUBE 1 30 Aug 22:47:50 22:51:46 31° 67° (ENE) 22:55:43 437.505/2401.250
PRISM 30 Aug 22:54:08 22:57:42 28° 294° (WNW) 23:01:15 437.425
Cosmos 2499 30 Aug 22:55:29 23:02:21 50° 75° (ENE) 23:09:15 435.465 / 435.565
UNISAT 6 30 Aug 23:09:51 23:14:02 51° 99° (E) 23:18:11 437.425
O/OREOS (USA 219) 30 Aug 23:18:47 23:23:26 84° 68° (ENE) 23:28:02 437.305
50 SAT 30 Aug 23:19:09 23:22:16 29° 69° (ENE) 23:25:25 437.505
CUBEBUG 1 30 Aug 23:21:07 23:25:18 43° 70° (ENE) 23:29:30 437.445
SPROUT 30 Aug 23:23:23 23:26:35 21° 64° (ENE) 23:29:47 437.525
VELOX 1 30 Aug 23:28:16 23:32:28 43° 70° (ENE) 23:36:42 145.980
DX 1 30 Aug 23:33:51 23:37:47 34° 68° (ENE) 23:41:47 434.975-435.025
SO-50 30 Aug 23:35:12 23:40:03 80° 125° (SE) 23:44:53 436.795
DUCHIFAT 1 30 Aug 23:35:39 23:37:36 13° 89° (E) 23:39:31 145.980
QB50P2 30 Aug 23:42:37 23:45:38 19° 92° (E) 23:48:36 145.880/145.840
POLYITAN 1 30 Aug 23:45:07 23:48:08 19° 92° (E) 23:51:06 437.675
ANTELSAT 30 Aug 23:46:41 23:50:56 65° 286° (WNW) 23:55:09 437.575/2403.000
RS-15 30 Aug 23:50:12 23:59:09 27° 101° (E) 00:08:24 29.354- 29.394
NANOSAT C BR1 30 Aug 23:50:17 23:53:25 20° 93° (E) 23:56:31 145.865
AUBIESAT-1 30 Aug 23:55:32 23:59:40 32° 258° (WSW) 00:03:48 437.475
DANDE 30 Aug 23:56:20 23:58:44 30° 93° (E) 00:01:28 436.750
M-CUBED/EXP-1 PRIME 31 Aug 00:04:55 00:08:37 23° 262° (W) 00:12:20 437.505
UKube-1 31 Aug 00:07:09 00:11:24 58° 72° (ENE) 00:15:41 .
CUSAT 1 31 Aug 00:07:23 00:10:28 39° 289° (WNW) 00:14:25 437.405
JAS-2 31 Aug 00:11:12 00:17:09 29° 93° (E) 00:23:32 435.910
GONETS M04 31 Aug 00:13:37 00:22:02 50° 272° (W) 00:30:23
BUGSAT 1 31 Aug 00:15:51 00:18:14 15° 90° (E) 00:20:35 437.445
TIGRISAT 31 Aug 00:16:54 00:20:46 34° 292° (WNW) 00:24:36 435.000
AISAT 31 Aug 00:17:26 00:21:50 58° 259° (W) 00:26:17 437.250
ESTCUBE 1 31 Aug 00:24:37 00:28:33 30° 264° (W) 00:32:31 437.505/2401.250
PHONESAT 2.4 31 Aug 00:35:26 00:36:26 11° 155° (SSE) 00:37:25 2401.200-2431.200
QB50P1 31 Aug 00:35:43 00:39:56 64° 101° (ESE) 00:44:06 145.935-145.965
POPSAT HIP 1 31 Aug 00:46:05 00:50:20 81° 103° (ESE) 00:54:31 437.405
SWISSCUBE 31 Aug 00:46:23 00:46:31 10° 54° (NE) 00:46:38 437.505
UNISAT 6 31 Aug 00:47:33 00:50:23 17° 298° (WNW) 00:53:12 437.425
Cosmos 2499 31 Aug 00:49:07 00:55:08 31° 275° (W) 01:01:14 435.465 / 435.565
50 SAT 31 Aug 00:53:10 00:55:53 20° 266° (W) 00:58:37 437.505
SPROUT 31 Aug 00:58:08 01:02:15 43° 262° (W) 01:06:23 437.525
CUBEBUG 1 31 Aug 00:58:28 01:01:46 21° 267° (W) 01:05:07 437.445
O/OREOS (USA 219) 31 Aug 01:00:42 01:02:06 11° 263° (W) 01:03:30 437.305
BEESAT 31 Aug 01:00:58 01:03:04 13° 57° (ENE) 01:05:09 436.000
TISAT 1 31 Aug 01:03:58 01:08:05 50° 71° (ENE) 01:12:13 437.305
VELOX 1 31 Aug 01:05:44 01:09:07 21° 267° (W) 01:12:32 145.980
DUCHIFAT 1 31 Aug 01:09:34 01:13:43 63° 287° (WNW) 01:17:51 145.980
DX 1 31 Aug 01:10:23 01:14:02 26° 265° (W) 01:17:43 434.975-435.025
SO-50 31 Aug 01:17:22 01:21:06 22° 325° (NW) 01:24:48 436.795
QB50P2 31 Aug 01:17:38 01:21:39 43° 290° (WNW) 01:25:38 145.880/145.840
POLYITAN 1 31 Aug 01:20:09 01:24:09 42° 290° (WNW) 01:28:06 437.675
NANOSAT C BR1 31 Aug 01:25:22 01:29:19 40° 290° (WNW) 01:33:13 145.865
Oscar 19 31 Aug 01:29:20 01:33:07 20° 91° (E) 01:36:51 437.125/150
UKube-1 31 Aug 01:45:21 01:47:50 15° 269° (W) 01:50:19 .
ITUPSAT 1 31 Aug 01:48:17 01:52:29 32° 66° (ENE) 01:56:42 437.325
BUGSAT 1 31 Aug 01:49:55 01:53:57 52° 288° (WNW) 01:57:54 437.445
JAS-2 31 Aug 01:55:43 02:02:30 64° 289° (WNW) 02:09:58 435.910
RS-15 31 Aug 01:58:19 02:09:57 90° 124° (SE) 02:22:17 29.354- 29.394
PHONESAT 2.4 31 Aug 02:09:37 02:12:10 25° 172° (S) 02:14:43 2401.200-2431.200
QB50P1 31 Aug 02:12:55 02:15:13 14° 299° (WNW) 02:17:30 145.935-145.965
SWISSCUBE 31 Aug 02:18:42 02:23:25 69° 72° (ENE) 02:28:10 437.505
MOZHAYETS 4 31 Aug 02:20:17 02:21:35 11° 57° (ENE) 02:22:54
POPSAT HIP 1 31 Aug 02:23:56 02:25:28 12° 301° (WNW) 02:27:01 437.405
BEESAT 31 Aug 02:35:22 02:40:08 89° 63° (ENE) 02:44:55 436.000
TISAT 1 31 Aug 02:41:18 02:44:01 16° 269° (W) 02:46:45 437.305
ITAMSAT 1 31 Aug 02:51:55 02:55:02 16° 90° (E) 02:58:09 435.822/435.867
Oscar 19 31 Aug 03:07:41 03:12:50 59° 289° (WNW) 03:17:54 437.125/150
Gurwin Techsat 1B 31 Aug 03:07:56 03:13:15 70° 102° (ESE) 03:18:33 435.225
KKS-1 31 Aug 03:21:26 03:25:26 33° 67° (ENE) 03:29:27 437.445
ITUPSAT 1 31 Aug 03:26:03 03:30:17 32° 264° (W) 03:34:33 437.325
AO-85 31 Aug 03:37:15 03:39:10 12° 107° (ESE) 03:41:03 145.980
JAS-2 31 Aug 03:42:53 03:46:27 15° 308° (NW) 03:50:11 435.910
PHONESAT 2.4 31 Aug 03:45:31 03:48:05 25° 188° (S) 03:50:39 2401.200-2431.200
STARS 31 Aug 03:47:16 03:51:08 30° 67° (ENE) 03:55:02 437.465
AO-7 31 Aug 03:47:23 03:54:25 29° 94° (E) 04:01:22 29.400- 29.500
CUBESAT XI-V 31 Aug 03:49:34 03:51:31 13° 58° (ENE) 03:53:28 437.345
Cosmos 2491 31 Aug 03:53:23 04:00:40 27° 63° (ENE) 04:07:54 435.465 / 435.565
MOZHAYETS 4 31 Aug 03:53:26 03:58:00 83° 74° (ENE) 04:02:35
SWISSCUBE 31 Aug 03:59:04 04:01:42 15° 270° (W) 04:04:21 437.505
RS-15 31 Aug 04:13:10 04:24:10 40° 333° (NNW) 04:35:36 29.354- 29.394
BEESAT 31 Aug 04:17:15 04:18:35 11° 273° (W) 04:19:55 436.000
ITAMSAT 1 31 Aug 04:29:53 04:35:03 72° 287° (WNW) 04:40:13 435.822/435.867
Gurwin Techsat 1B 31 Aug 04:49:00 04:52:40 19° 301° (WNW) 04:56:20 435.225
KKS-1 31 Aug 04:58:08 05:02:01 28° 265° (W) 05:05:54 437.445
YUBILEINY 31 Aug 05:10:09 05:17:11 28° 80° (E) 05:24:13 435.215
AO-85 31 Aug 05:13:40 05:18:57 77° 124° (ESE) 05:23:54 145.980
PHONESAT 2.4 31 Aug 05:22:41 05:23:50 12° 204° (SSW) 05:25:00 2401.200-2431.200
STARS 31 Aug 05:23:33 05:27:27 30° 264° (W) 05:31:23 437.465
CUBESAT XI-V 31 Aug 05:23:33 05:28:11 89° 259° (W) 05:32:52 437.345
MOZHAYETS 4 31 Aug 05:34:26 05:35:47 11° 273° (W) 05:37:07
AO-7 31 Aug 05:39:33 05:47:48 69° 294° (WNW) 05:56:00 29.400- 29.500
NOAA 15 31 Aug 05:48:42 05:50:51 12° 87° (E) 05:52:58 137.62
Cosmos 2491 31 Aug 05:49:38 05:58:27 76° 266° (W) 06:07:16 435.465 / 435.565
CUTE-I 31 Aug 05:59:53 06:02:01 12° 87° (E) 06:04:08 437.470
HORYU 2 31 Aug 06:07:59 06:12:24 66° 102° (ESE) 06:16:46 437.375
LilacSat-2 31 Aug 06:08:19 06:08:47 10° 88° (E) 06:09:14 437.200
ITAMSAT 1 31 Aug 06:11:45 06:13:37 12° 306° (NW) 06:15:30 435.822/435.867
BRITE-PL 31 Aug 06:22:59 06:28:31 48° 97° (E) 06:33:51 437.365/2234.400
SO-50 31 Aug 06:24:37 06:28:27 25° 38° (NE) 06:32:13 436.795
RS-15 31 Aug 06:30:27 06:41:02 32° 7° (N) 06:51:44 29.354- 29.394
STRAND 1 31 Aug 06:38:15 06:42:51 35° 66° (ENE) 06:47:28 437.568
Cosmos 2504 31 Aug 06:49:18 06:56:50 41° 88° (E) 07:03:55 435.465 / 435.565
AO-85 31 Aug 06:55:49 06:59:54 23° 322° (NW) 07:03:47 145.980
YUBILEINY 31 Aug 07:04:22 07:13:11 72° 281° (WNW) 07:22:02 435.215
DOVE 4 31 Aug 07:05:32 07:09:35 24° 91° (E) 07:13:25 437.250
CUBESAT XI-V 31 Aug 07:05:46 07:06:16 10° 274° (W) 07:06:45 437.345
NOAA 18 31 Aug 07:10:08 07:15:23 44° 99° (E) 07:20:35 137.9125
GOMX 1 31 Aug 07:17:38 07:23:02 68° 101° (E) 07:28:07 467.674
NOAA 15 31 Aug 07:26:01 07:31:23 87° 102° (ESE) 07:36:43 137.62
Cubesat XI-IV 31 Aug 07:26:52 07:32:12 71° 103° (ESE) 07:37:31 437.490
ISS 31 Aug 07:28:10 07:30:45 22° 138° (SE) 07:33:21 145.825
HO-68 31 Aug 07:33:24 07:37:35 16° 87° (E) 07:41:45 435.675
AO-7 31 Aug 07:33:46 07:39:10 20° 316° (NW) 07:44:34 29.400- 29.500
CUTE-I 31 Aug 07:37:28 07:42:50 88° 110° (ESE) 07:48:09 437.470
LilacSat-2 31 Aug 07:39:46 07:43:32 65° 285° (WNW) 07:47:15 437.200
HORYU 2 31 Aug 07:45:52 07:48:27 15° 300° (WNW) 07:51:01 437.375
Cosmos 2491 31 Aug 07:48:48 07:53:43 17° 287° (WNW) 07:58:40 435.465 / 435.565
BRITE-PL 31 Aug 08:01:51 08:06:42 30° 296° (WNW) 08:11:27 437.365/2234.400
SO-50 31 Aug 08:04:45 08:09:17 59° 239° (WSW) 08:13:42 436.795
SEEDS 31 Aug 08:04:46 08:06:42 13° 89° (E) 08:08:38 437.485
PRISM 31 Aug 08:10:28 08:14:03 30° 67° (ENE) 08:17:39 437.425
STRAND 1 31 Aug 08:17:30 08:22:03 32° 264° (W) 08:26:37 437.568
BEESAT 3 31 Aug 08:22:48 08:25:23 17° 112° (ESE) 08:27:59 437.485
AAUSAT CUBESAT 2 31 Aug 08:25:01 08:26:24 11° 88° (E) 08:27:48 437.432
CANX-2 31 Aug 08:32:47 08:36:47 40° 98° (E) 08:40:48 2200.000
COMPASS 1 31 Aug 08:35:40 08:38:42 19° 92° (E) 08:41:43 437.405
CUTE 1.7 + AOD 2 31 Aug 08:38:05 08:42:06 40° 98° (E) 08:46:06 437.475
Cosmos 2504 31 Aug 08:42:15 08:50:07 46° 287° (WNW) 08:57:31 435.465 / 435.565
DOVE 4 31 Aug 08:42:43 08:47:28 43° 291° (WNW) 08:51:57 437.250
RS-15 31 Aug 08:44:59 08:57:05 55° 40° (NE) 09:09:04 29.354- 29.394
CUBEBUG 2 31 Aug 08:46:48 08:49:45 18° 91° (E) 08:52:39 437.445
NOAA 18 31 Aug 08:51:10 08:55:51 30° 298° (WNW) 09:00:30 137.9125
CUSAT 1 31 Aug 08:53:13 08:58:45 27° 67° (ENE) 09:05:04 437.405
CINEMA 3 31 Aug 08:54:36 08:59:08 79° 103° (ESE) 09:03:25 145.822/145.860
GOMX 1 31 Aug 08:56:43 09:00:31 20° 300° (WNW) 09:04:11 467.674
AIST 1 31 Aug 08:57:49 09:01:59 46° 93° (E) 09:06:13
ISS 31 Aug 09:03:42 09:06:58 67° 335° (NNW) 09:10:15 145.825
YUBILEINY 31 Aug 09:06:22 09:11:50 17° 306° (NW) 09:17:20 435.215
NOAA 15 31 Aug 09:07:21 09:10:26 16° 304° (WNW) 09:13:33 137.62
Cubesat XI-IV 31 Aug 09:08:05 09:11:44 19° 301° (WNW) 09:15:21 437.490
ANTELSAT 31 Aug 09:12:34 09:15:34 18° 62° (ENE) 09:18:32 437.575/2403.000
CUTE-I 31 Aug 09:19:06 09:22:09 16° 304° (WNW) 09:25:13 437.470
HO-68 31 Aug 09:19:09 09:26:22 83° 106° (ESE) 09:33:32 435.675
SEEDS 31 Aug 09:38:38 09:42:49 64° 287° (WNW) 09:47:01 437.485
Oscar 11 31 Aug 09:40:25 09:44:14 30° 96° (E) 09:48:02 145.826/435.025
TIGRISAT 31 Aug 09:41:10 09:45:08 30° 68° (ENE) 09:49:04 435.000
PRISM 31 Aug 09:45:52 09:49:20 26° 265° (W) 09:52:51 437.425
BEESAT 2 31 Aug 09:48:43 09:52:38 68° 124° (SE) 09:56:37 435.950
FUNcube-1 31 Aug 09:53:17 09:57:09 37° 97° (E) 10:00:59 145.935
AAUSAT CUBESAT 2 31 Aug 09:58:11 10:02:21 71° 285° (WNW) 10:06:31 437.432
BEESAT 3 31 Aug 09:58:51 10:02:41 51° 310° (NW) 10:06:33 437.485
CANX-2 31 Aug 10:09:12 10:12:24 21° 295° (WNW) 10:15:38 2200.000
COMPASS 1 31 Aug 10:10:29 10:14:27 42° 289° (WNW) 10:18:23 437.405
UNISAT 6 31 Aug 10:10:32 10:15:02 62° 73° (ENE) 10:19:27 437.425
UWE-3 31 Aug 10:11:30 10:15:42 83° 284° (WNW) 10:19:50 435.000/436.395/437.385
CUTE 1.7 + AOD 2 31 Aug 10:14:28 10:17:42 21° 295° (WNW) 10:20:55 437.475
ZACube-1 31 Aug 10:16:54 10:21:03 73° 101° (ESE) 10:25:11 437.345
CUBEBUG 2 31 Aug 10:22:37 10:26:37 42° 289° (WNW) 10:30:32 437.445
DANDE 31 Aug 10:27:09 10:32:38 50° 76° (ENE) 10:39:39 436.750
HUMSAT D 31 Aug 10:28:35 10:31:41 20° 93° (E) 10:34:46 437.325/437.525
JAS-2 31 Aug 10:29:55 10:32:26 13° 51° (NE) 10:35:03 435.910
DUCHIFAT 1 31 Aug 10:29:57 10:32:20 15° 61° (ENE) 10:34:42 145.980
CINEMA 3 31 Aug 10:33:34 10:35:35 13° 302° (WNW) 10:37:34 145.822/145.860
CUSAT 1 31 Aug 10:34:30 10:41:10 70° 262° (W) 10:48:58 437.405
AIST 1 31 Aug 10:36:48 10:39:52 18° 292° (WNW) 10:42:58
QB50P2 31 Aug 10:37:37 10:40:47 21° 64° (ENE) 10:43:58 145.880/145.840
POLYITAN 1 31 Aug 10:40:05 10:43:17 21° 64° (ENE) 10:46:29 437.675
ISS 31 Aug 10:40:52 10:43:49 29° 355° (N) 10:46:46 145.825
NANOSAT C BR1 31 Aug 10:44:46 10:48:01 22° 65° (ENE) 10:51:16 145.865
ANTELSAT 31 Aug 10:47:24 10:51:53 57° 259° (W) 10:56:19 437.575/2403.000
RS-15 31 Aug 10:57:58 11:09:57 60° 245° (WSW) 11:21:45 29.354- 29.394
AIST 2 31 Aug 10:58:11 11:00:50 17° 111° (ESE) 11:03:29 435.215
DELFI C3 31 Aug 11:02:52 11:06:54 81° 284° (WNW) 11:10:54 145.870
HO-68 31 Aug 11:07:55 11:13:19 24° 306° (NW) 11:18:42 435.675
BUGSAT 1 31 Aug 11:07:56 11:10:37 16° 62° (ENE) 11:13:16 437.445
Oscar 11 31 Aug 11:16:36 11:20:18 28° 293° (WNW) 11:24:00 145.826/435.025
TIGRISAT 31 Aug 11:17:46 11:21:48 30° 264° (W) 11:25:46 435.000
GONETS M04 31 Aug 11:21:01 11:29:05 43° 86° (E) 11:37:12
BEESAT 2 31 Aug 11:28:05 11:30:54 18° 323° (NW) 11:33:45 435.950
FUNcube-1 31 Aug 11:30:01 11:33:12 22° 295° (WNW) 11:36:21 145.935
QB50P1 31 Aug 11:30:05 11:34:18 65° 74° (ENE) 11:38:34 145.935-145.965
PCSat 31 Aug 11:33:11 11:38:33 67° 118° (ESE) 11:43:57 145.827
AUBIESAT-1 31 Aug 11:33:34 11:35:24 13° 94° (E) 11:37:11 437.475
Cosmos 2499 31 Aug 11:34:53 11:42:05 39° 88° (E) 11:48:50 435.465 / 435.565
BEESAT 3 31 Aug 11:40:09 11:41:16 11° 331° (NNW) 11:42:23 437.485
POPSAT HIP 1 31 Aug 11:40:28 11:44:45 82° 74° (ENE) 11:49:02 437.405
M-CUBED/EXP-1 PRIME 31 Aug 11:41:59 11:45:00 20° 97° (E) 11:47:50 437.505
UNISAT 6 31 Aug 11:49:32 11:52:08 15° 270° (W) 11:54:43 437.425
ZACube-1 31 Aug 11:55:02 11:56:47 12° 300° (WNW) 11:58:32 437.345
DUCHIFAT 1 31 Aug 12:03:19 12:07:31 64° 258° (WSW) 12:11:46 145.980
HUMSAT D 31 Aug 12:03:39 12:07:26 37° 290° (WNW) 12:11:13 437.325/437.525
AO-85 31 Aug 12:03:52 12:07:15 21° 36° (NE) 12:10:26 145.980
AISAT 31 Aug 12:05:40 12:09:10 22° 93° (E) 12:12:37 437.250
DANDE 31 Aug 12:10:16 12:15:18 31° 268° (W) 12:21:26 436.750
JAS-2 31 Aug 12:11:10 12:16:25 78° 73° (ENE) 12:22:13 435.910
QB50P2 31 Aug 12:12:15 12:16:19 42° 261° (W) 12:20:25 145.880/145.840
ESTCUBE 1 31 Aug 12:13:50 12:18:14 47° 99° (E) 12:22:37 437.505/2401.250
POLYITAN 1 31 Aug 12:14:46 12:18:50 42° 262° (W) 12:22:54 437.675
ISS 31 Aug 12:17:42 12:20:49 38° 15° (NNE) 12:23:56 145.825
50 SAT 31 Aug 12:18:08 12:21:13 25° 96° (E) 12:24:17 437.505
CUSAT 1 31 Aug 12:18:56 12:22:22 14° 278° (W) 12:26:01 437.405
NANOSAT C BR1 31 Aug 12:19:30 12:23:31 40° 262° (W) 12:27:32 145.865
AIST 2 31 Aug 12:34:50 12:38:53 57° 309° (NW) 12:42:59 435.215
BUGSAT 1 31 Aug 12:41:23 12:45:34 56° 259° (W) 12:49:46 437.445
SPROUT 31 Aug 12:41:45 12:45:21 26° 95° (E) 12:48:55 437.525
CUBEBUG 1 31 Aug 12:43:07 12:47:32 62° 101° (E) 12:51:54 437.445
Oscar 19 31 Aug 12:48:11 12:52:54 37° 66° (ENE) 12:57:39 437.125/150
VELOX 1 31 Aug 12:51:55 12:56:22 61° 102° (ESE) 13:00:46 145.980
Gurwin Techsat 1B 31 Aug 12:53:24 12:57:22 22° 60° (ENE) 13:01:20 435.225
DX 1 31 Aug 12:55:11 12:59:25 44° 99° (E) 13:03:35 434.975-435.025
AO-7 31 Aug 13:01:39 13:05:45 15° 38° (NE) 13:09:51 29.400- 29.500
AUBIESAT-1 31 Aug 13:06:23 13:10:19 55° 294° (WNW) 13:13:56 437.475
QB50P1 31 Aug 13:08:30 13:10:32 13° 271° (W) 13:12:33 145.935-145.965
RS-15 31 Aug 13:14:21 13:19:35 14° 268° (W) 13:24:48 29.354- 29.394
M-CUBED/EXP-1 PRIME 31 Aug 13:15:56 13:19:42 36° 297° (WNW) 13:23:11 437.505
GONETS M04 31 Aug 13:17:26 13:25:49 48° 288° (WNW) 13:34:19
PCSat 31 Aug 13:17:56 13:22:25 26° 319° (NW) 13:26:56 145.827
POPSAT HIP 1 31 Aug 13:20:32 13:21:05 10° 272° (W) 13:21:39 437.405
Cosmos 2499 31 Aug 13:27:33 13:35:05 46° 286° (WNW) 13:42:10 435.465 / 435.565
UKube-1 31 Aug 13:27:34 13:31:57 76° 104° (ESE) 13:36:15 .
O/OREOS (USA 219) 31 Aug 13:33:20 13:37:45 61° 111° (ESE) 13:42:15 437.305
AISAT 31 Aug 13:41:36 13:45:48 41° 291° (WNW) 13:49:57 437.250
AO-85 31 Aug 13:43:52 13:48:09 63° 238° (WSW) 13:52:05 145.980
ESTCUBE 1 31 Aug 13:51:20 13:54:45 21° 297° (WNW) 13:58:09 437.505/2401.250
50 SAT 31 Aug 13:51:43 13:54:43 24° 292° (WNW) 13:57:43 437.505
ISS 31 Aug 13:54:09 13:57:23 52° 214° (SW) 14:00:35 145.825
JAS-2 31 Aug 13:59:31 14:02:26 15° 274° (W) 14:05:29 435.910
ITAMSAT 1 31 Aug 14:11:43 14:16:16 32° 65° (ENE) 14:20:50 435.822/435.867
AIST 2 31 Aug 14:16:29 14:18:16 12° 331° (NNW) 14:20:03 435.215
SPROUT 31 Aug 14:17:30 14:21:19 32° 292° (WNW) 14:25:07 437.525
SWISSCUBE 31 Aug 14:17:50 14:20:25 14° 89° (E) 14:23:02 437.505
CUBEBUG 1 31 Aug 14:20:37 14:23:20 16° 299° (WNW) 14:26:03 437.445
TISAT 1 31 Aug 14:20:48 14:24:59 64° 101° (ESE) 14:29:08 437.305
Oscar 19 31 Aug 14:27:40 14:32:15 32° 264° (W) 14:36:53 437.125/150
VELOX 1 31 Aug 14:29:33 14:32:22 17° 299° (WNW) 14:35:10 145.980
Gurwin Techsat 1B 31 Aug 14:31:38 14:36:53 61° 259° (W) 14:42:10 435.225
DX 1 31 Aug 14:32:01 14:35:20 21° 297° (WNW) 14:38:36 434.975-435.025
BEESAT 31 Aug 14:33:53 14:37:14 19° 92° (E) 14:40:34 436.000
AO-7 31 Aug 14:48:41 14:56:39 51° 61° (ENE) 15:04:36 29.400- 29.500
UKube-1 31 Aug 15:05:20 15:07:23 13° 301° (WNW) 15:09:27 .
O/OREOS (USA 219) 31 Aug 15:14:25 15:17:36 19° 310° (NW) 15:20:50 437.305
YUBILEINY 31 Aug 15:16:30 15:21:31 16° 53° (NE) 15:26:30 435.215
ITUPSAT 1 31 Aug 15:23:16 15:27:57 53° 101° (E) 15:32:37 437.325
GONETS M04 31 Aug 15:23:25 15:25:27 11° 314° (NW) 15:27:30
HORYU 2 31 Aug 15:35:34 15:36:40 11° 57° (ENE) 15:37:45 437.375
MOZHAYETS 4 31 Aug 15:47:03 15:49:56 16° 90° (E) 15:52:50
ITAMSAT 1 31 Aug 15:50:53 15:55:40 37° 263° (W) 16:00:28 435.822/435.867
SWISSCUBE 31 Aug 15:53:58 15:58:44 70° 287° (WNW) 16:03:28 437.505
TISAT 1 31 Aug 15:57:52 16:00:08 14° 300° (WNW) 16:02:24 437.305
BRITE-PL 31 Aug 16:02:02 16:03:22 11° 52° (NE) 16:04:42 437.365/2234.400
BEESAT 31 Aug 16:10:41 16:15:21 54° 289° (WNW) 16:19:59 436.000
BEESAT 2 31 Aug 16:27:37 16:30:05 16° 35° (NE) 16:32:34 435.950
BEESAT 3 31 Aug 16:36:26 16:39:50 26° 43° (NE) 16:43:14 437.485
Cosmos 2504 31 Aug 16:39:48 16:43:40 15° 56° (ENE) 16:47:30 435.465 / 435.565
AO-7 31 Aug 16:41:46 16:49:33 42° 261° (W) 16:57:23 29.400- 29.500
KKS-1 31 Aug 16:45:50 16:50:08 45° 99° (E) 16:54:23 437.445
GOMX 1 31 Aug 16:52:11 16:55:10 15° 57° (ENE) 16:58:13 467.674
Cosmos 2491 31 Aug 16:59:06 17:05:58 27° 80° (E) 17:12:53 435.465 / 435.565
NOAA 18 31 Aug 17:00:45 17:04:24 18° 57° (ENE) 17:08:04 137.9125
ITUPSAT 1 31 Aug 17:01:55 17:05:26 21° 298° (WNW) 17:08:56 437.325
HORYU 2 31 Aug 17:08:01 17:12:28 82° 74° (ENE) 17:16:56 437.375
STARS 31 Aug 17:09:53 17:14:02 39° 98° (E) 17:18:08 437.465
NOAA 15 31 Aug 17:10:07 17:14:27 27° 62° (ENE) 17:18:50 137.62
YUBILEINY 31 Aug 17:11:34 17:20:20 67° 77° (ENE) 17:28:59 435.215
Cubesat XI-IV 31 Aug 17:13:01 17:17:08 23° 61° (ENE) 17:21:14 437.490
CUBESAT XI-V 31 Aug 17:18:22 17:21:48 20° 91° (E) 17:25:13 437.345
MOZHAYETS 4 31 Aug 17:22:59 17:27:29 58° 287° (WNW) 17:31:59
CUTE-I 31 Aug 17:23:02 17:27:29 28° 63° (ENE) 17:31:55 437.470
SWISSCUBE 31 Aug 17:34:56 17:35:38 10° 306° (NW) 17:36:20 437.505
BRITE-PL 31 Aug 17:35:40 17:40:39 63° 72° (ENE) 17:46:03 437.365/2234.400
BEESAT 2 31 Aug 18:04:28 18:08:30 90° 18° (NNE) 18:12:31 435.950
HO-68 31 Aug 18:05:33 18:10:14 19° 50° (NE) 18:14:54 435.675
DOVE 4 31 Aug 18:12:18 18:17:00 34° 67° (ENE) 18:21:46 437.250
BEESAT 3 31 Aug 18:13:54 18:17:37 38° 241° (WSW) 18:21:18 437.485
KKS-1 31 Aug 18:23:03 18:26:25 21° 297° (WNW) 18:29:46 437.445
CINEMA 3 31 Aug 18:23:33 18:26:05 14° 59° (ENE) 18:28:35 145.822/145.860
LilacSat-2 31 Aug 18:23:36 18:27:26 85° 75° (ENE) 18:31:16 437.200
GOMX 1 31 Aug 18:27:09 18:32:24 87° 70° (ENE) 18:37:55 467.674
Cosmos 2504 31 Aug 18:31:15 18:38:31 75° 81° (E) 18:45:41 435.465 / 435.565
PCSat 31 Aug 18:35:57 18:39:57 20° 37° (NE) 18:43:57 145.827
NOAA 18 31 Aug 18:38:53 18:44:26 79° 255° (WSW) 18:49:59 137.9125
STARS 31 Aug 18:46:42 18:50:10 23° 296° (WNW) 18:53:37 437.465
HORYU 2 31 Aug 18:48:25 18:49:36 11° 272° (W) 18:50:48 437.375
NOAA 15 31 Aug 18:48:56 18:54:00 47° 261° (W) 18:59:06 137.62
Cubesat XI-IV 31 Aug 18:51:34 18:56:49 57° 259° (W) 19:02:05 437.490
Cosmos 2491 31 Aug 18:53:16 19:01:58 72° 281° (W) 19:10:47 435.465 / 435.565
CUBESAT XI-V 31 Aug 18:54:54 18:59:27 50° 289° (WNW) 19:04:01 437.345
SEEDS 31 Aug 18:59:20 19:01:18 13° 61° (ENE) 19:03:17 437.485
CUTE-I 31 Aug 19:02:12 19:07:17 46° 261° (W) 19:12:25 437.470
AIST 1 31 Aug 19:03:07 19:05:54 16° 67° (ENE) 19:08:40
YUBILEINY 31 Aug 19:09:16 19:16:26 30° 279° (W) 19:23:34 435.215
AIST 2 31 Aug 19:15:44 19:19:24 28° 43° (NE) 19:23:02 435.215
BRITE-PL 31 Aug 19:16:07 19:19:40 19° 272° (W) 19:23:24 437.365/2234.400
AAUSAT CUBESAT 2 31 Aug 19:18:13 19:19:36 11° 60° (ENE) 19:20:59 437.432
CANX-2 31 Aug 19:27:45 19:31:39 38° 70° (ENE) 19:35:34 2200.000
COMPASS 1 31 Aug 19:29:06 19:31:57 18° 64° (ENE) 19:34:49 437.405
CUTE 1.7 + AOD 2 31 Aug 19:32:57 19:36:51 38° 70° (ENE) 19:40:46 437.475
UWE-3 31 Aug 19:36:44 19:38:51 13° 60° (ENE) 19:40:56 435.000/436.395/437.385
CUBEBUG 2 31 Aug 19:46:49 19:50:28 24° 66° (ENE) 19:54:03 437.445
